Погода в Эвиан-ле-Бене

Франция     46°24′00″N   6°34′57″E
темп.,
°C
ветер,
м/с
пор.,
м/с
влажн.,
%
обл.,
%
осадки,
мм/ч
давл.,
гПа
погр.,
м
19 апреля, пн
пн1923:00+6с477421 0.1 1020410
02:00+4с48855 0.1 1020304
05:00+2с468811 0.0 1020286
08:00+3с368519 0.0 1021346
11:00+7св46649 0.0 1019968
14:00+11св454914 0.0 10181366
17:00+12св664713 0.0 10161522
20:00+9ссв45592 0.0 1017497
20 апреля, вт
вт2023:00+6с34701 0.0 1018166
02:00+5с23750 0.0 1018170
05:00+3ссз22792 0.0 1018117
08:00+4с237727 0.0 1019204
11:00+8св236171 0.0 1017572
14:00+11в235311 0.0 1015884
17:00+13всв124613 0.1 1013988
20:00+11ссз11607 0.4 101482
21 апреля, ср
ср2123:00+8с23758 0.0 1016112
02:00+6ссз228112 0.0 1017108
05:00+5ссз11845 0.0 101897
08:00+6ссз11825 0.0 1018141
11:00+10вюв11717 0.0 1018405
14:00+11юв216711 0.4 1016632
17:00+13ссз115797 0.9 1014637
20:00+11ссв337554 1.4 1015150
22 апреля, чт
чт2223:00+8ссз11765 0.2 101749
02:00+7сз11814 0.2 101880
05:00+6сз11853 0.0 101885
08:00+7ссз11832 0.0 1019128
11:00+10вюв11702 0.0 1018449
14:00+13юв22627 0.0 1017776
17:00+15ссв34564 0.5 1016980
20:00+12ссв59785 1.4 1017350
23 апреля, пт
пт2323:00+9с611810 0.0 1019371
02:00+8ссв710867 0.0 1020433
05:00+5ссв698237 0.0 1021358
08:00+5ссв687421 0.0 1022377
11:00+9св56650 0.0 1021613
14:00+13ссв66540 0.0 1019801
17:00+15ссв66480 0.0 1018725
20:00+12ссв49570 0.0 1019292